Location: Borgo
(42.3939°N, 9.2791°E)
Time: 01:45:59
(UTC+00:00)

S3M - Pass Details

Date: 24 January 2021
Orbit: 949 x 1004 km, 83.0° (Epoch: 08 March)

Event Time Altitude Azimuth Distance (km) Brightness Sun altitude
Rises 18:04:03 0° 0° (N) 3,634 6.9 -17.9°
Reaches altitude 10° 18:06:50 10° 10° (N) 2,683 6.1 -18.4°
Maximum altitude 18:12:18 33° 74° (ENE) 1,533 4.5 -19.4°
Enters shadow 18:12:26 33° 76° (ENE) 1,534 4.5 -19.4°
